Location: Brede
(50.9167°N, 0.6000°E)
Time: 03:33:18
(UTC+00:00)

Cosmos 2263 Rocket - Pass Details

Date: 08 August 2020
Orbit: 823 x 849 km, 71.0° (Epoch: 27 September)

Event Time Altitude Azimuth Distance (km) Brightness Sun altitude
Exits shadow 03:49:59 - 211° (SSW) 2,797 4.3 -6.8°
Reaches altitude 10° 03:50:58 10° 212° (SSW) 2,423 4.0 -6.7°
Maximum altitude 03:56:31 82° 300° (WNW) 838 2.2 -6.0°
Drops below altitude 10° 04:02:07 10° 29° (NNE) 2,434 5.8 -5.2°
Sets 04:04:33 0° 30° (NNE) 3,372 6.6 -4.9°
